Weather Roundup
Issued by NWS

Home | Current Version | Previous Version | Text Only | Print | Product List | Glossary On
Versions: 1 2 3 4 5 6 7 8 9 10 11 12 13 14 15 16 17 18 19 20 21 22 23 24 25 26 27 28 29 30 31 32 33 34 35 36 37 38 39 40 41 42 43 44 45 46 47 48 49 50
000
CXUS53 KTOP 060910
HRRKS

...ACROSS KANSAS...

400 AM CDT SAT JUN 06 2020
WESTERN KANSAS

CITY           SKY/WX    TMP DP  RH WIND       PRES   REMARKS
GOODLAND       PTCLDY    71  57  61 S14       29.90S
HILL CITY      MOCLDY    73  62  68 S6        29.90S
DODGE CITY     CLEAR     73  63  70 S10       29.93F
GARDEN CITY    PTCLDY    71  62  73 S7        29.93S
LIBERAL        PTCLDY    72  60  66 S10       29.94F
ELKHART        PTCLDY    73  61  64 S14       29.96S
HAYS           PTCLDY    71  63  75 S7        29.91S
RUSSELL        PTCLDY    74  62  66 S13       29.89S
MEDICINE LDG     N/A     75  67  76 SE6       29.91S

CENTRAL KANSAS

CITY           SKY/WX    TMP DP  RH WIND       PRES   REMARKS
GREAT BEND     PTCLDY    71  64  78 S6        29.92R
CONCORDIA      PTCLDY    76  68  76 S13       29.91R
SALINA         CLEAR     73  68  84 S8        29.91S
HUTCHISON      CLEAR     71  67  87 E5        29.92S
NEWTON           N/A     72  69  90 SE7       29.93F
WICHITA        CLEAR     76  69  79 S7        29.91F
WINFIELD       CLEAR     75  71  87 SE3       29.93S

EASTERN KANSAS

CITY           SKY/WX    TMP DP  RH WIND       PRES   REMARKS
MARYSVILLE     CLEAR     73  72  94 SE5       29.93R
MANHATTAN      CLEAR     79  68  69 S8        29.91F HX  81
TOPEKA         CLEAR     75  70  84 E5        29.93F
FORBES         CLEAR     73  71  93 SE6       29.94F
OLATHE IND     CLEAR     74  71  91 SE6       29.97S
LAWRENCE       CLEAR     72  69  90 E6        29.94S
OTTAWA         FAIR      72  72 100 SE7       29.94S FOG
EMPORIA        CLEAR     73  69  87 SE8       29.93F
IOLA           CLEAR     71  68  90 CALM      29.97R
CHANUTE        CLEAR     74  70  87 E7        29.95R

...ADJACENT STATES...


CITY           SKY/WX    TMP DP  RH WIND       PRES   REMARKS
KCI AIRPORT    CLEAR     73  71  93 SE7       29.96S
ST JOSEPH      CLEAR     75  69  81 CALM      29.96S
FALLS CITY     CLEAR     73  68  84 SE7       29.93F
BEATRICE       PTCLDY    75  71  85 SE5       29.94R
OMAHA          CLOUDY    76  64  66 E10       29.96S
LINCOLN        PTCLDY    77  68  73 SE7       29.94R
GRAND ISLAND   CLOUDY    76  68  76 SE8       29.92S
NORTH PLATTE   CLOUDY    75  64  68 NE16      29.91F
SCOTTSBLUFF    CLOUDY    69  58  67 SE23G32   29.85S
CHEYENNE       CLOUDY    66  42  41 S8        29.96S


CITY           SKY/WX    TMP DP  RH WIND       PRES   REMARKS
DENVER         CLOUDY    73  42  32 SW14      29.92S
COLO SPRINGS   MOCLDY    64  45  49 N5        30.03F
RAPID CITY     MOCLDY    58  53  84 E6        29.85F
AMARILLO       CLEAR     72  58  61 S13       29.99S
OKLA CITY      CLEAR     71  70  96 SE7       29.94S
TULSA          PTCLDY    82  74  76 S8        29.92S HX  88
LITTLE ROCK    CLEAR     69  67  93 CALM      29.94S
SPRINGFIELD    CLEAR     73  70  90 S6        29.99R
COLUMBIA       CLEAR     71  69  93 SE3       29.99R


CITY           SKY/WX    TMP DP  RH WIND       PRES   REMARKS
ST LOUIS       PTCLDY    73  68  84 CALM      29.98S
DES MOINES     MOCLDY    73  56  54 E9        29.99F
BISMARK        PTCLDY    62  46  55 E10       29.97F
BURLINGTON KS  FAIR      70  69  96 SE5       29.95F
FORT SCOTT     CLEAR     75  73  94 SE5       29.95S
HEBRON         PTCLDY    75  69  81 SE7       29.92R
COFFEYVILLE    CLEAR     72  69  90 CALM      29.93R



USA.gov is the U.S. government's official web portal to all federal, state and local government web resources and services.